Погода Советская Гавань

Погода Советская Гавань : погода сейчас, прогноз погоды и архив. Всё, что Вы хотите узнать о погоде Советская Гавань!

Поиск расширенной информации на нашем сайте:

Другие новости

Новости СМИ2

Главная страница сайта

Новости сайта

02.10.2013

Напоминаем, что на нашем новом сайте вы можете получить высокодетализированные прогнозы погоды по пунктам России, СНГ и мира (включающие важные для авиации метеовеличины, такие как направление и скорость ветра, видимость, явления погоды, количество и форма облачности, нижняя и верхняя граница облачности), а также ознакомиться с разнообразными материалами по авиационной метеорологии и подборкой полезных ссылок на эту тему.

Сайт Метеоцентр.Азия посвящён разработке технологий оптимизации авиаметеорологического обслуживания, включая проектирование и перспективное создание нескольких автоматизированных авиаметеорологических систем:
- система выпуска высокодетальных прогностических карт явлений погоды для нижнего воздушного пространства по России и ближнему зарубежью;
- система верификации прогнозов TAF (выпускаемых синоптиками официальных АМСГ РФ и ближнего зарубежья) и AUTOTAF (выпускаемых сайтом Метеоцентр.Азия) - выявление ошибок, онлайн-сопоставление с фактической погодой METAR, автоматическое внесение коррективов в прогнозы при резком отклонении фактической погоды от прогноза, подсчёт оправдываемости прогнозов по элементам и в целом;
- система обработки, анализа и отображения авиаметеорологической информации для применения провайдерами метеорологической информации.

Рекомендуем: Ssangyong автогермес корейские автомобили.

Погода Советская Гавань - сегодня

Время (UTC), дата Ветер
(°,м/с) 
Видим.   Явления Облачность Т
(°С)
Тd
(°С)
f(%) Тe
(°С)
Pmin
(гПа)
dP
(гПа)
Po
(мм)
O2
(г/м3)
Тmin Tmax R s Состояние
почвы
18 23.05.17 140 (ЮВ) 50000 м    10/8 600 м средняя 
[Sc|Ac As]
+9.2 +3.3 67 +9  1005.6  -0.6  752  293           
21 23.05.17 тихо ()   20000 м  слаб. ливневой дождь  10/8 600 м кучево-дожд., средняя 
[Cb cap|Ac As]
+8.1 +4.2 76 +8  1006.3  0.7  753  294  +7.7    0.0    влажная 
00 24.05.17 тихо ()   20000 м  слаб. ливневой дождь  10/10 600 м кучево-дожд. 
[Cb cap]
+9.2 +6.1 81 +9  1007  0.7  753  293           
03 24.05.17 050 (СВ) 20000 м    10/10 600 м 
[Sc]
+8.5 +4.3 75 +9  1007.7  0.8  754  294           
06 24.05.17 050 (СВ) 20000 м  в посл. час дождь  10/10 600 м 
[Sc]
+8.5 +4.6 76 +9  1008.2  0.5  754  294           
09 24.05.17 тихо ()   20000 м  слаб. ливневой дождь  10/10 600 м кучево-дожд. 
[Cb cap]
+5.9 +4.4 90 +6  1009.6  1.3  755  297    +10.9  0.5     
12 24.05.17 тихо ()   10 км  слаб. морось{ливн. осадки}  10/10 300 м 
[Frnb]
+5.6 +4.7 94 +6  1011.7  2.2  757  298           
15 24.05.17 тихо ()   8000 м  слаб. морось  10/10 200 м 
[Frnb]
+6 +5.3 95 +6  1012.4  0.6  757  298           
18 24.05.17 тихо ()   6000 м  слаб. морось  10/10 200 м 
[Frnb]
+5.8 +4.9 94 +6  1012.4  757  298           
21 24.05.17 тихо ()   4000 м  ливневой дождь  10/10 300 м кучево-дожд. 
[Cb cap]
+5.8 +5.1 95 +6  1013.6  1.2  758  298  +5.4      влажная 
00 25.05.17 250 (З) 4000 м  слаб. ливневой дождь  10/10 300 м кучево-дожд. 
[Cb cap]
+6.1 +5.2 94 +6  1014.2  0.6  759  298           
03 25.05.17 290 (З) 10 км  в посл. час ливневой дождь  10/8 300 м кучево-дожд., средняя 
[Cb cap|As op]
+7.5 +5.4 87 +7  1014.4  0.2  759  297           
06 25.05.17 050 (СВ) 20000 м  {ливн. осадки, морось}  10/8 300 м кучево-дожд., средняя 
[Cb cap|Ac As]
+8.5 +5.9 84 +9  1014.1  -0.3  759  296           
09 25.05.17 180 (Ю) 20000 м    10/3 600 м средняя, верхняя 
[Sc|Ac trans|Ci fib]
+8.4 +4.1 74 +8  1013.9  -0.2  758  296    +9.1     
12 25.05.17 тихо ()   50000 м    ясно 
+4.8 +3.7 93 +5  1014.2  0.3  759  300           
15 25.05.17 250 (З) 1400 м  туман местами  ясно 
+1.9 +1.3 96 +1  1013.9  -0.3  758  303           
18 25.05.17 180 (Ю) 0100 м  туман  ?/?  
+1.5 +1.1 97 +1  1013  -0.9  758  304           
21 25.05.17 200 (Ю) 1000 м  туман местами  ясно 
+3 +2.6 97 +2  1012.9  -0.1  758  302  +0.7        влажная 
00 26.05.17 020 (С) 20000 м  {туман}  ясно 
+9.2 +6 80 +9  1011.7  -1.2  757  294           
03 26.05.17 320 (СЗ) 20000 м    1/1 600 м 
[Cu hum]
+17.2 +6.3 49 +18  1009.7  -1.9  755  285           
06 26.05.17 180 (Ю) 20000 м    1/1 600 м 
[Cu hum]
+20.7 +2.1 29 +21  1008.3  -1.4  754  282           
09 26.05.17 180 (Ю) 20000 м    1/1 600 м 
[Cu hum]
+18.6 -0.5 27 +19  1007.9  -0.4  754  284    +20.8       
12 26.05.17 250 (З) 45000 м    1/0 верхняя 
[Ci fib]
+13 +1.6 46 +13  1009.4  1.5  755  290           
15 26.05.17 320 (СЗ) 29000 м    ясно 
+5.7 +3.8 88 +5  1010.1  0.6  756  298           
18 26.05.17 140 (ЮВ) 35000 м    ясно 
+3.1 +2.4 95 +3  1010.1  756  301           
Время (UTC), дата Ветер
(°,м/с) 
Видим.   Явления Облачность Т
(°С)
Тd
(°С)
f(%) Тe
(°С)
Pmin
(гПа)
dP
(гПа)
Po
(мм)
O2
(г/м3)
Тmin Tmax R s Состояние
почвы

Для получения пояснительной информации подведите курсор к названию столбца.

ПОГОДА Советская Гавань - архив

Всё, что Вы хотите узнать о погоде Советская Гавань - удобно и подробно!

Выберите нужную дату (начиная с 1 января 2015* года) и нажмите кнопку "Найти".
Будут отображены архивные сводки погоды по пункту Советская Гавань, начиная с указанной даты.


Отображать данные в формате CSV (для использования в таблицах Excel)


Внимание! Наш архив погоды предназначен исключительно для личного некоммерческого использования в познавательных целях. Если Вам необходимы официальные справки о состоянии погоды (для производственных, юридических, коммерческих и т.п. целей), обращайтесь в органы Росгидромета.

*Примечание: данная дата относится к архиву по метеостанциям СССР (Россия, СНГ, Балтия).
Архив по метеостанциям Зарубежной Европы и Азии (кроме Китая) хранится 10 дней, по другим регионам земного шара (Китай, Африка, Америка, Австралия, Океания) - 1 день.

Советская Гавань - район местоположения метеостанции


Название, широта, долгота, высота метеостанции:
Советская Гавань 49°ш. 140.3°д. 22 м над ур. моря [Российская Федерация]

Дополнительная информация

В oтличие oт бoльшинства пoгoдных сайтoв мы публикуем пoдрoбную метеoинфoрмацию в детальнoм прoфессиoнальнoм фoрмате.

Характеристики температуры и влажнoсти вoздуха измеряются на высoте 2 м в тени вдали oт зданий и деревьев.
Скoрoсть ветра измеряется на высoте 10 м (на урoвне рoста челoвека скoрoсть ветра ниже в 1.5-2 раза). Если метеoстанция нахoдится в гoрoде или в лесу, тo скoрoсть ветра занижена на 2-4 м/с пo сравнению с oткрытым местoм. Скoрoсть ветра над акватoриями крупных рек и oзёр, а также на вершинах хoлмoв на 2-5 м/с выше, чем в oбычных услoвиях.
Атмoсфернoе давление в разных тoчках местнoсти мoжет значительнo oтличаться oт давления на метеoстанции, в зависимoсти oт услoвий рельефа (при пoдъёме на 10 м давление пoнижается примернo на 1 мм рт.ст.).